Seattle, WA

8:35 PM PST on December 13, 2019 (GMT -0800)
Seattle-Tacoma International

Weather History for KSEA - June, 2019

Change the Weather History Date:

Saturday, June 8, 2019

  Actual Average Record
Temperature  
Mean Temperature 61 °F 60 °F  
Max Temperature 70 °F 69 °F 96 °F (1903)
Min Temperature 51 °F 51 °F 42 °F (2002)
Degree Days  
Heating Degree Days 4 6  
Month to date heating degree days 32 50  
Since 1 June heating degree days 32 50  
Since 1 July heating degree days 4040 4603  
Cooling Degree Days 0 0  
Month to date cooling degree days 0 0  
Year to date cooling degree days 21 6  
Since 1 June cooling degree days 0 0  
Growing Degree Days 10 (Base 50)    
Moisture  
Dew Point 45 °F    
Average Humidity 60    
Maximum Humidity 83    
Minimum Humidity 37    
Precipitation  
Precipitation 0.00 in 0.07 in 0.81 in (1981)
Month to date precipitation 0.11 0.51  
Year to date precipitation 14.08 17.95  
Sea Level Pressure  
Sea Level Pressure 30.36 in    
Wind  
Wind Speed 8 mph (SSW)    
Max Wind Speed 17 mph    
Max Gust Speed 20 mph    
Visibility 10 miles    
Events      
T = Trace of Precipitation, MM = Missing Value Source: NWS Daily Summary

Daily Weather History Graph

Daily Weather History Graph

Search for Another Location

Airport or City:

Astronomy

Jun. 08, 2019 Rise Set
Actual Time 5:12 AM PDT 9:04 PM PDT
Civil Twilight 4:33 AM PDT 9:44 PM PDT
Nautical Twilight 3:38 AM PDT 10:38 PM PDT
Astronomical Twilight 2:17 AM PDT 12:00 AM PDT
Moon 10:57 AM PDT (6/8) 1:00 AM PDT (6/8)
Length of Visible Light 17h 10m
Length of Day
15h 51m
Waxing Crescent, 34% of the Moon is Illuminated
Jun 8
Waxing Crescent
Jun 9
First Quarter
Jun 17
Full
Jun 25
Last Quarter
Jul 2
New

Hourly Weather History & Observations

Time (PDT) Temp. Dew Point Humidity Pressure Visibility Wind Dir Wind Speed Gust Speed Precip Events Conditions
12:00 AM 51.1 °F 46.9 °F 86% 30.24 in 10.0 mi South 5.8 mph - N/A   Overcast
12:53 AM 51.1 °F 46.9 °F 86% 30.27 in 10.0 mi South 6.9 mph - N/A   Overcast
1:53 AM 52.0 °F 46.9 °F 83% 30.29 in 10.0 mi SSE 6.9 mph - N/A   Overcast
2:07 AM 51.1 °F 46.9 °F 86% 30.27 in 10.0 mi South 6.9 mph - N/A   Overcast
2:53 AM 51.1 °F 46.9 °F 86% 30.30 in 10.0 mi South 8.1 mph - N/A   Overcast
3:20 AM 51.1 °F 46.9 °F 86% 30.28 in 10.0 mi South 6.9 mph - N/A   Overcast
3:34 AM 51.1 °F 46.9 °F 86% 30.28 in 10.0 mi South 6.9 mph - N/A   Overcast
3:53 AM 51.1 °F 46.9 °F 86% 30.32 in 10.0 mi South 6.9 mph - N/A   Overcast
4:53 AM 51.1 °F 46.0 °F 83% 30.32 in 10.0 mi South 8.1 mph - N/A   Overcast
5:53 AM 51.1 °F 46.0 °F 83% 30.35 in 10.0 mi SW 6.9 mph - N/A   Overcast
6:53 AM 51.1 °F 46.9 °F 86% 30.37 in 10.0 mi South 3.5 mph - N/A   Overcast
7:53 AM 52.0 °F 46.0 °F 80% 30.38 in 10.0 mi SSW 4.6 mph - N/A   Overcast
8:53 AM 53.1 °F 45.0 °F 74% 30.39 in 10.0 mi South 8.1 mph - N/A   Overcast
9:09 AM 54.0 °F 45.0 °F 72% 30.37 in 10.0 mi South 9.2 mph - N/A   Mostly Cloudy
9:53 AM 55.9 °F 45.0 °F 67% 30.40 in 10.0 mi SW 10.4 mph - N/A   Mostly Cloudy
10:53 AM 57.9 °F 46.0 °F 65% 30.41 in 10.0 mi West 11.5 mph - N/A   Scattered Clouds
11:53 AM 61.0 °F 45.0 °F 56% 30.42 in 10.0 mi WSW 8.1 mph - N/A   Scattered Clouds
12:53 PM 63.0 °F 43.0 °F 48% 30.41 in 10.0 mi Variable 4.6 mph - N/A   Scattered Clouds
1:53 PM 64.0 °F 43.0 °F 46% 30.40 in 10.0 mi SW 9.2 mph - N/A   Scattered Clouds
2:53 PM 66.0 °F 43.0 °F 43% 30.40 in 10.0 mi WSW 9.2 mph - N/A   Scattered Clouds
3:53 PM 68.0 °F 43.0 °F 40% 30.40 in 10.0 mi WNW 8.1 mph - N/A   Scattered Clouds
4:53 PM 68.0 °F 42.1 °F 39% 30.40 in 10.0 mi Variable 5.8 mph - N/A   Scattered Clouds
5:53 PM 69.1 °F 42.1 °F 38% 30.39 in 10.0 mi WSW 8.1 mph - N/A   Scattered Clouds
6:53 PM 66.0 °F 42.1 °F 42% 30.39 in 10.0 mi West 6.9 mph - N/A   Scattered Clouds
7:53 PM 64.9 °F 44.1 °F 47% 30.40 in 10.0 mi WNW 5.8 mph - N/A   Partly Cloudy
8:53 PM 61.0 °F 45.0 °F 56% 30.40 in 10.0 mi North 9.2 mph - N/A   Partly Cloudy
9:53 PM 59.0 °F 46.0 °F 62% 30.42 in 10.0 mi North 11.5 mph - N/A   Partly Cloudy
10:53 PM 59.0 °F 45.0 °F 60% 30.43 in 10.0 mi NNE 15.0 mph - N/A   Partly Cloudy
11:53 PM 57.0 °F 45.0 °F 64% 30.43 in 10.0 mi NNE 12.7 mph - N/A   Partly Cloudy